Regional Weather Roundup
Issued by NWS

Home | Current Version | Previous Version | Text Only | Print | Product List | Glossary Off
Versions: 1 2 3 4 5 6 7 8 9 10 11 12 13 14 15 16 17 18 19 20 21 22 23 24 25 26 27 28 29 30 31 32 33 34 35 36 37 38 39 40 41 42 43 44 45 46 47 48 49 50

000
ASUS43 KDMX 141801
RWRIA

WEATHER ROUNDUP FOR IOWA
NATIONAL WEATHER SERVICE DES MOINES IA
1200 PM CST THU DEC 14 2017

NOTE: "FAIR" INDICATES FEW OR NO CLOUDS BELOW 12,000 FEET WITH NO
SIGNIFICANT WEATHER AND/OR OBSTRUCTIONS TO VISIBILITY.

* - THESE STATIONS ARE NOT NWS STATIONS...THUS NOT UNDER NWS
QUALITY CONTROL.  THEY ALSO DO NOT REPORT WEATHER SUCH
AS PRECIPITATION OR FOG.

IAZ001>003-012>014-020>022-031>034-043>046-141900-
   NORTHWEST IOWA

CITY           SKY/WX    TMP DP  RH WIND       PRES   REMARKS
CARROLL *      CLOUDY    30  21  69 VRB5      30.05F WCI  25
CHEROKEE *     CLOUDY    29  27  91 S6        30.05F WCI  23
DENISON *      CLOUDY    30  25  80 S5        30.07F WCI  25
LE MARS *      CLOUDY    36  27  69 CALM      30.05F
ORANGE CITY *  CLOUDY    34  30  86 W5        30.04S WCI  30
SHELDON *      CLOUDY    30  28  93 CALM      30.03S
SIOUX CITY     CLOUDY    37  27  67 N7        30.06F WCI  32
6HR MIN TEMP:  29; 6HR MAX TEMP:  38;

SPENCER        CLOUDY    28  21  75 W8        30.05S WCI  20
6HR MIN TEMP:  23; 6HR MAX TEMP:  28;

STORM LAKE *   CLOUDY    28  23  80 SW8       30.03F WCI  20
$$

IAZ055>058-069>071-079>083-090>094-141900-
   SOUTHWEST IOWA

CITY           SKY/WX    TMP DP  RH WIND       PRES   REMARKS
ATLANTIC *     CLOUDY    32  25  74 VRB5      30.07S WCI  27
AUDUBON *      CLOUDY    30  25  80 CALM      30.06F
CLARINDA *     CLOUDY    36  27  69 CALM      30.10
COUNCIL BLFS * CLOUDY    37  27  65 NW6       30.05F WCI  33
CRESTON *      CLOUDY    30  23  74 NW3       30.07F
HARLAN  *      CLOUDY    32  25  74 CALM      30.09F
LAMONI         CLOUDY    32  20  61 VRB3      30.06F
6HR MIN TEMP:  27; 6HR MAX TEMP:  32;

RED OAK *      CLOUDY    36  27  69 S3        30.07F
SHENANDOAH *   CLOUDY    39  27  60 CALM      30.08F
$$

IAZ047>049-059>061-072>074-084-141900-
   CENTRAL IOWA

CITY           SKY/WX    TMP DP  RH WIND       PRES   REMARKS
AMES           CLOUDY    29  18  63 MISG      30.07F
6HR MIN TEMP:  23; 6HR MAX TEMP:  29;

ANKENY *       MOSUNNY   28  18  64 VRB5      30.08F WCI  23
BOONE *        CLOUDY    28  18  64 NW7       30.05F WCI  21
CHARITON *     MOSUNNY   30  19  64 N8        30.06F WCI  23
DES MOINES     PTSUNNY   32  18  56 NE6       30.07F WCI  26
6HR MIN TEMP:  26; 6HR MAX TEMP:  32;

GRINNELL*      CLOUDY    26  17  71 W6        30.07F WCI  19
KNOXVILLE *    CLOUDY    27  14  59 VRB7      30.06F WCI  19
MARSHALLTOWN   CLOUDY    25  16  68 NW5       30.06F WCI  19
6HR MIN TEMP:  23; 6HR MAX TEMP:  25;

NEWTON *       CLOUDY    27  16  63 VRB5      30.07F WCI  21
PELLA *        CLOUDY    27  17  64 CALM      30.09F
PERRY *        CLOUDY    29  19  65 NW3       30.06F
$$

IAZ004>006-015-016-023>025-035-036-141900-
   NORTH CENTRAL IOWA

CITY           SKY/WX    TMP DP  RH WIND       PRES   REMARKS
ALGONA *       CLOUDY    28  21  74 W7        30.03F WCI  21
CLARION *      CLOUDY    27  19  74 VRB7      30.05F WCI  19
ESTHERVILLE    CLOUDY    27  21  78 NW8       30.03S WCI  19
6HR MIN TEMP:  21; 6HR MAX TEMP:  27;

FORT DODGE *   CLOUDY    28  20  71 W7        30.06F WCI  21
MASON CITY     CLOUDY    24  15  68 SW6       30.04F WCI  17
6HR MIN TEMP:  14; 6HR MAX TEMP:  24;

FOREST CITY *  CLOUDY    27  19  74 W5        30.04S WCI  21
WEBSTER CITY * CLOUDY    28  18  64 W6        30.04F WCI  22
IOWA FALLS *   CLOUDY    27  17  66 W6        30.07S WCI  21
$$

IAZ007>011-017>019-026>030-037>042-050>054-066-141900-
   NORTHEAST IOWA

CITY           SKY/WX    TMP DP  RH WIND       PRES   REMARKS
CEDAR RAPIDS   MOSUNNY   24  16  71 W3        30.06F
6HR MIN TEMP:  12; 6HR MAX TEMP:  25;

CHARLES CITY * MOSUNNY   23  16  74 SW6       30.05F WCI  16
CLINTON *      MIX PCPN  25  11  55 CALM      30.09F
DECORAH *      SUNNY     23  16  74 SW7       30.03F WCI  15
DUBUQUE        SUNNY     22  11  62 S3        30.05F
6HR MIN TEMP:  11; 6HR MAX TEMP:  22;

MONTICELLO *   PTSUNNY   25  14  63 VRB5      30.07F WCI  19
OELWEIN *      PTSUNNY   25  18  74 W7        30.06F WCI  17
WATERLOO       CLOUDY    24  14  65 W10       30.07F WCI  14
6HR MIN TEMP:  16; 6HR MAX TEMP:  24;

$$

IAZ064-065-067-068-078-141900-
   EAST CENTRAL IOWA

CITY           SKY/WX    TMP DP  RH WIND       PRES   REMARKS
DAVENPORT      MOSUNNY   25  15  66 VRB3      30.10F
6HR MIN TEMP:  20; 6HR MAX TEMP:  26;

IOWA CITY      CLOUDY    26  15  63 W5        30.10F WCI  20
6HR MIN TEMP:  15; 6HR MAX TEMP:  27;

MT. PLEASANT * CLOUDY    26  15  63 CALM      30.09F
MUSCATINE *    CLOUDY    28  16  59 VRB5      30.10F WCI  23
QUAD CITIES    MOSUNNY   28  16  60 CALM      30.08F
6HR MIN TEMP:  24; 6HR MAX TEMP:  28;

$$

IAZ062-063-075>077-085>089-095>099-141900-
   SOUTHEAST IOWA

CITY           SKY/WX    TMP DP  RH WIND       PRES   REMARKS
BURLINGTON     CLOUDY    28  18  66 CALM      30.08F
6HR MIN TEMP:  20; 6HR MAX TEMP:  28;

FAIRFIELD *    CLOUDY    27  14  59 W5        30.08F WCI  21
FORT MADISON * CLOUDY    27  18  69 CALM      30.09F
KEOKUK *       PTSUNNY   28  16  59 N6        30.08F WCI  22
OSKALOOSA *    CLOUDY    26  17  69 CALM      30.09S
OTTUMWA        CLOUDY    27  15  61 CALM      30.08F
6HR MIN TEMP:  24; 6HR MAX TEMP:  27;

WASHINGTON *   MOSUNNY   27  18  69 W6        30.10S WCI  20
$$

ABBREVIATIONS USED IN REMARKS
   TC - TEMPERATURES IN CELSIUS
  WCI - WIND CHILL INDEX
   HX - HEAT INDEX
  VSB - VISIBILITY
$$





USA.gov is the U.S. government's official web portal to all federal, state and local government web resources and services.